TimeEDT,TemperatureF,Dew PointF,Humidity,Sea Level PressureIn,VisibilityMPH,Wind Direction,Wind SpeedMPH,Gust SpeedMPH,PrecipitationIn,Events,Conditions,WindDirDegrees,DateUTC
12:53 AM,42.1,28.0,58,30.11,10.0,West,11.5,-,N/A,,Overcast,260,2013-10-26 04:53:00
1:53 AM,43.0,27.0,53,30.08,10.0,WSW,13.8,20.7,N/A,,Overcast,250,2013-10-26 05:53:00
2:53 AM,43.0,28.0,56,30.06,10.0,SW,8.1,-,N/A,,Overcast,230,2013-10-26 06:53:00
3:53 AM,42.1,30.9,65,30.02,10.0,SSW,10.4,-,0.00,Rain,Light Rain,210,2013-10-26 07:53:00
4:16 AM,41.0,35.6,81,29.98,5.0,SW,15.0,-,0.02,Rain,Light Rain,230,2013-10-26 08:16:00
4:53 AM,42.1,36.0,79,29.98,7.0,SW,20.7,33.4,0.06,Rain,Light Rain,230,2013-10-26 08:53:00
5:08 AM,42.8,35.6,76,29.94,10.0,SW,18.4,29.9,0.00,Rain,Light Rain,220,2013-10-26 09:08:00
5:53 AM,44.1,34.0,68,29.95,10.0,SW,24.2,-,0.00,,Overcast,230,2013-10-26 09:53:00
6:53 AM,44.1,33.1,65,29.92,10.0,North,-9999.0,-,N/A,,Overcast,0,2013-10-26 10:53:00
7:03 AM,44.6,33.8,66,29.88,10.0,SW,19.6,33.4,N/A,,Overcast,230,2013-10-26 11:03:00
7:53 AM,44.1,32.0,63,29.89,10.0,SW,23.0,33.4,N/A,,Mostly Cloudy,220,2013-10-26 11:53:00
8:53 AM,44.1,30.9,60,29.88,10.0,SW,25.3,42.6,N/A,,Overcast,220,2013-10-26 12:53:00
9:03 AM,44.6,30.2,57,29.85,10.0,SSW,26.5,41.4,0.00,Rain,Light Rain,210,2013-10-26 13:03:00
9:53 AM,43.0,33.1,68,29.86,10.0,SSW,25.3,38.0,0.00,Rain,Light Rain,210,2013-10-26 13:53:00
10:25 AM,44.6,32.0,61,29.82,10.0,SW,21.9,35.7,0.00,,Overcast,220,2013-10-26 14:25:00
10:53 AM,45.0,32.0,60,29.84,10.0,SW,21.9,39.1,0.00,,Overcast,230,2013-10-26 14:53:00
10:59 AM,44.6,32.0,61,29.81,10.0,SW,21.9,32.2,0.00,Rain,Light Rain,220,2013-10-26 14:59:00
11:53 AM,43.0,34.0,71,29.83,8.0,SW,32.2,43.7,0.00,Rain,Light Rain,220,2013-10-26 15:53:00
12:21 PM,42.8,35.6,76,29.80,5.0,SW,28.8,44.9,0.00,Rain,Light Rain,230,2013-10-26 16:21:00
12:38 PM,42.8,35.6,76,29.80,7.0,WSW,28.8,39.1,0.00,Rain,Light Rain,250,2013-10-26 16:38:00
12:53 PM,42.1,36.0,79,29.82,8.0,SW,27.6,38.0,0.01,Rain,Light Rain,230,2013-10-26 16:53:00
1:23 PM,42.8,37.4,81,29.78,7.0,SW,18.4,28.8,0.00,Rain,Light Rain,230,2013-10-26 17:23:00
1:53 PM,42.1,37.0,82,29.81,7.0,SW,23.0,35.7,0.01,Rain,Light Rain,230,2013-10-26 17:53:00
2:06 PM,42.8,37.4,81,29.78,6.0,SW,27.6,40.3,0.01,Rain,Light Rain,230,2013-10-26 18:06:00
2:35 PM,42.8,37.4,81,29.78,3.0,SW,19.6,32.2,0.03,Rain,Light Rain,230,2013-10-26 18:35:00
2:53 PM,42.1,37.9,85,29.81,4.0,WSW,23.0,33.4,0.05,Rain,Light Rain,240,2013-10-26 18:53:00
3:19 PM,42.8,37.4,81,29.77,5.0,SW,15.0,23.0,0.01,Rain,Light Rain,220,2013-10-26 19:19:00
3:53 PM,42.1,37.9,85,29.81,7.0,SW,15.0,23.0,0.03,Rain,Light Rain,230,2013-10-26 19:53:00
4:21 PM,42.8,37.4,81,29.76,8.0,SW,26.5,-,0.00,,Overcast,230,2013-10-26 20:21:00
4:45 PM,42.8,37.4,81,29.76,8.0,SW,15.0,23.0,0.00,Rain,Light Rain,230,2013-10-26 20:45:00
4:53 PM,43.0,37.0,80,29.79,8.0,SW,15.0,23.0,0.01,Rain,Light Rain,230,2013-10-26 20:53:00
5:37 PM,42.8,37.4,81,29.77,4.0,SW,24.2,-,0.04,Rain,Light Rain,230,2013-10-26 21:37:00
5:53 PM,43.0,37.9,82,29.80,4.0,SW,16.1,-,0.05,Rain,Light Rain,230,2013-10-26 21:53:00
6:19 PM,42.8,37.4,81,29.77,8.0,SW,16.1,-,0.01,Rain,Light Rain,230,2013-10-26 22:19:00
6:53 PM,42.1,37.9,85,29.81,8.0,SSW,18.4,-,0.02,Rain,Light Rain,210,2013-10-26 22:53:00
7:33 PM,42.8,39.2,87,29.78,8.0,SSW,18.4,-,0.02,Rain,Light Rain,210,2013-10-26 23:33:00
7:53 PM,43.0,39.0,86,29.80,10.0,SW,13.8,-,0.02,Rain,Light Rain,220,2013-10-26 23:53:00
8:31 PM,42.8,39.2,87,29.77,10.0,SSW,11.5,-,0.00,,Overcast,210,2013-10-27 00:31:00
8:47 PM,44.6,39.2,81,29.77,10.0,SSW,11.5,-,0.00,Rain,Light Rain,210,2013-10-27 00:47:00
8:53 PM,44.1,39.0,82,29.80,10.0,SSW,11.5,-,0.00,Rain,Light Rain,210,2013-10-27 00:53:00
9:53 PM,43.0,37.9,82,29.81,10.0,WSW,9.2,-,0.00,Rain,Light Rain,240,2013-10-27 01:53:00
10:53 PM,43.0,37.0,80,29.83,10.0,WSW,10.4,-,0.00,Rain,Light Rain,240,2013-10-27 02:53:00
11:53 PM,42.1,37.0,82,29.85,10.0,North,-9999.0,-,0.00,,Overcast,0,2013-10-27 03:53:00